QPF
0.13 0.16 0.16 0.18 0.20 0.18 0.16 0.16 0.13 0.09 0.05 0.03 0.03 0.04 0.06 0.07 0.08 0.09 0.10 0.10 0.08 0.06 0.06 0.07 0.06 0.04 0.04 0.05 0.04 0.04 0.04 0.03 0.03 0.02 0.02 0.02 0.01 0.01
0.10 0.14 0.14 0.17 0.21 0.21 0.18 0.17 0.16 0.13 0.10 0.08 0.06 0.07 0.07 0.08 0.08 0.07 0.09 0.12 0.09 0.07 0.05 0.05 0.05 0.04 0.04 0.04 0.03 0.01 0.01 0.01 0.01 0.01 0.01 0.01 0.01 0.01
0.11 0.12 0.15 0.18 0.21 0.23 0.22 0.19 0.17 0.15 0.11 0.09 0.08 0.07 0.07 0.06 0.06 0.05 0.06 0.08 0.07 0.07 0.05 0.05 0.05 0.05 0.05 0.03 0.02 0.01 0.01 0.01 0.01 0.00 0.01 0.01 0.02 0.02
0.12 0.13 0.12 0.14 0.18 0.22 0.23 0.23 0.21 0.19 0.15 0.14 0.11 0.09 0.08 0.08 0.07 0.07 0.06 0.06 0.07 0.07 0.07 0.07 0.06 0.06 0.06 0.04 0.03 0.02 0.01 0.01 0.00 0.00 0.00 0.01 0.02 0.02
0.11 0.12 0.10 0.12 0.15 0.19 0.21 0.22 0.25 0.27 0.23 0.19 0.20 0.16 0.13 0.12 0.11 0.09 0.08 0.07 0.07 0.07 0.07 0.07 0.06 0.07 0.07 0.07 0.06 0.04 0.03 0.02 0.01 0.01 0.00 0.00 0.01 0.01
0.09 0.11 0.12 0.11 0.11 0.13 0.17 0.18 0.21 0.25 0.26 0.22 0.22 0.21 0.18 0.15 0.12 0.09 0.08 0.06 0.06 0.05 0.06 0.07 0.08 0.09 0.09 0.09 0.07 0.05 0.04 0.03 0.02 0.02 0.01 0.01 0.00 0.00
0.08 0.10 0.12 0.12 0.10 0.10 0.12 0.14 0.17 0.19 0.19 0.19 0.19 0.18 0.16 0.14 0.11 0.08 0.07 0.07 0.06 0.05 0.04 0.04 0.05 0.06 0.06 0.06 0.05 0.04 0.03 0.03 0.02 0.02 0.01 0.01 0.01 0.01
0.07 0.09 0.11 0.12 0.12 0.12 0.13 0.15 0.16 0.18 0.17 0.15 0.15 0.14 0.12 0.10 0.09 0.07 0.06 0.06 0.07 0.06 0.04 0.04 0.04 0.04 0.05 0.04 0.04 0.03 0.02 0.02 0.02 0.02 0.02 0.01 0.01 0.01
0.08 0.08 0.11 0.12 0.14 0.13 0.14 0.16 0.16 0.18 0.18 0.16 0.14 0.11 0.09 0.08 0.07 0.06 0.05 0.05 0.04 0.05 0.05 0.04 0.03 0.03 0.03 0.04 0.04 0.02 0.01 0.01 0.01 0.01 0.01 0.01 0.01 0.01
0.12 0.10 0.11 0.12 0.16 0.15 0.16 0.17 0.13 0.12 0.12 0.13 0.13 0.12 0.10 0.08 0.07 0.07 0.07 0.07 0.06 0.05 0.04 0.04 0.03 0.03 0.02 0.03 0.03 0.02 0.01 0.00 0.00 0.00 0.00 0.00 0.01 0.01
0.10 0.14 0.15 0.15 0.17 0.17 0.14 0.14 0.12 0.11 0.09 0.10 0.11 0.13 0.12 0.10 0.08 0.06 0.06 0.06 0.06 0.06 0.04 0.04 0.03 0.03 0.02 0.02 0.02 0.02 0.01 0.00 0.00 0.01 0.01 0.01 0.01 0.01
0.09 0.14 0.17 0.17 0.17 0.16 0.15 0.11 0.09 0.09 0.08 0.09 0.09 0.09 0.09 0.08 0.07 0.06 0.06 0.06 0.05 0.04 0.03 0.02 0.03 0.02 0.02 0.02 0.02 0.01 0.01 0.01 0.01 0.01 0.01 0.02 0.02 0.01
0.12 0.11 0.14 0.18 0.18 0.15 0.14 0.12 0.08 0.06 0.07 0.07 0.06 0.05 0.06 0.06 0.06 0.05 0.05 0.06 0.04 0.03 0.02 0.02 0.02 0.01 0.01 0.01 0.01 0.01 0.00 0.00 0.00 0.01 0.01 0.01 0.01 0.00
0.14 0.13 0.12 0.16 0.16 0.14 0.13 0.11 0.09 0.08 0.06 0.06 0.06 0.05 0.06 0.06 0.05 0.05 0.05 0.04 0.03 0.04 0.03 0.02 0.02 0.01 0.01 0.01 0.00 0.00 0.00 0.00 0.00 0.00 0.00 0.00 0.00 0.00
0.11 0.10 0.11 0.13 0.13 0.11 0.11 0.09 0.08 0.05 0.05 0.05 0.05 0.05 0.05 0.05 0.04 0.05 0.05 0.05 0.04 0.04 0.03 0.02 0.02 0.02 0.01 0.00 0.00 0.00 0.00 0.00 0.00 0.00 0.00 0.00 0.00 0.00
0.09 0.08 0.08 0.08 0.08 0.09 0.08 0.08 0.06 0.04 0.04 0.05 0.05 0.06 0.05 0.04 0.04 0.05 0.05 0.04 0.03 0.02 0.02 0.02 0.02 0.01 0.01 0.00 0.00 0.00 0.00 0.00 0.00 0.00 0.00 0.00 0.00 0.00
0.06 0.05 0.05 0.04 0.03 0.04 0.05 0.05 0.05 0.04 0.04 0.06 0.06 0.05 0.04 0.03 0.03 0.03 0.04 0.03 0.02 0.01 0.01 0.00 0.01 0.01 0.01 0.00 0.00 0.00 0.00 0.00 0.00 0.00 0.00 0.00 0.00 0.00
0.03 0.03 0.03 0.01 0.01 0.02 0.02 0.02 0.03 0.04 0.04 0.05 0.05 0.04 0.04 0.02 0.02 0.02 0.01 0.01 0.01 0.00 0.00 0.00 0.00 0.00 0.00 0.00 0.00 0.00 0.00 0.00 0.00 0.00 0.00 0.00 0.00 0.00
0.02 0.01 0.01 0.01 0.01 0.01 0.02 0.01 0.01 0.02 0.04 0.03 0.03 0.02 0.02 0.01 0.01 0.00 0.00 0.00 0.00 0.00 0.00 0.00 0.00 0.00 0.00 0.00 0.00 0.00 0.00 0.00 0.00 0.00 0.00 0.00 0.00 0.00
0.00 0.00 0.00 0.00 0.00 0.01 0.01 0.01 0.01 0.01 0.02 0.02 0.01 0.01 0.00 0.00 0.00 0.00 0.00 0.00 0.00 0.00 0.00 0.00 0.00 0.00 0.00 0.00 0.00 0.00 0.00 0.00 0.00 0.00 0.00 0.00 0.00 0.00
0.00 0.00 0.00 0.00 0.00 0.00 0.00 0.00 0.00 0.01 0.01 0.00 0.00 0.00 0.00 0.00 0.00 0.00 0.00 0.00 0.00 0.00 0.00 0.00 0.00 0.00 0.00 0.00 0.00 0.00 0.00 0.00 0.00 0.00 0.00 0.00 0.00 0.00
0.00 0.00 0.00 0.00 0.00 0.00 0.00 0.00 0.00 0.00 0.00 0.00 0.00 0.00 0.00 0.00 0.00 0.00 0.00 0.00 0.00 0.00 0.00 0.00 0.00 0.00 0.00 0.00 0.00 0.00 0.00 0.00 0.00 0.00 0.00 0.00 0.00 0.00
0.00 0.00 0.00 0.00 0.00 0.00 0.00 0.00 0.00 0.00 0.00 0.00 0.00 0.00 0.00 0.00 0.00 0.00 0.00 0.00 0.00 0.00 0.00 0.00 0.00 0.00 0.00 0.00 0.00 0.00 0.00 0.00 0.00 0.00 0.00 0.00 0.00 0.00
MSLP
1010.96 1011.31 1011.78 1012.32 1012.88 1013.42 1013.91 1014.31 1014.62 1014.85 1015.00 1015.11 1015.19 1015.29 1015.41 1015.56 1015.75 1015.98 1016.25 1016.55 1016.87 1017.22 1017.59 1017.98 1018.38 1018.78 1019.18 1019.55 1019.89 1020.18 1020.42 1020.61 1020.74 1020.84 1020.92 1020.99 1021.05 1021.13
1010.25 1010.52 1010.91 1011.40 1011.94 1012.50 1013.02 1013.48 1013.87 1014.19 1014.43 1014.64 1014.81 1014.98 1015.16 1015.35 1015.57 1015.81 1016.08 1016.36 1016.67 1017.01 1017.37 1017.76 1018.16 1018.58 1018.99 1019.39 1019.75 1020.06 1020.33 1020.54 1020.70 1020.83 1020.93 1021.03 1021.12 1021.23
1009.66 1009.82 1010.12 1010.54 1011.03 1011.56 1012.09 1012.59 1013.04 1013.43 1013.78 1014.09 1014.38 1014.65 1014.92 1015.19 1015.47 1015.75 1016.04 1016.34 1016.66 1016.99 1017.35 1017.73 1018.13 1018.55 1018.96 1019.36 1019.73 1020.06 1020.33 1020.56 1020.74 1020.89 1021.02 1021.14 1021.27 1021.41
1009.17 1009.23 1009.44 1009.77 1010.19 1010.67 1011.17 1011.68 1012.17 1012.63 1013.07 1013.48 1013.88 1014.28 1014.66 1015.04 1015.41 1015.76 1016.11 1016.46 1016.80 1017.16 1017.52 1017.91 1018.31 1018.72 1019.13 1019.52 1019.88 1020.20 1020.47 1020.70 1020.89 1021.05 1021.20 1021.34 1021.50 1021.67
1008.79 1008.77 1008.88 1009.11 1009.45 1009.86 1010.32 1010.81 1011.30 1011.80 1012.31 1012.81 1013.33 1013.84 1014.35 1014.85 1015.33 1015.79 1016.23 1016.65 1017.05 1017.45 1017.85 1018.25 1018.66 1019.07 1019.47 1019.85 1020.20 1020.50 1020.76 1020.97 1021.15 1021.31 1021.46 1021.62 1021.80 1021.99
1008.51 1008.41 1008.44 1008.59 1008.84 1009.17 1009.56 1010.00 1010.48 1010.99 1011.53 1012.11 1012.71 1013.33 1013.96 1014.58 1015.19 1015.77 1016.32 1016.84 1017.33 1017.79 1018.25 1018.69 1019.12 1019.54 1019.94 1020.31 1020.64 1020.92 1021.16 1021.35 1021.51 1021.66 1021.81 1021.97 1022.15 1022.35
1008.31 1008.16 1008.13 1008.20 1008.36 1008.60 1008.92 1009.29 1009.73 1010.23 1010.79 1011.40 1012.07 1012.77 1013.50 1014.24 1014.96 1015.66 1016.32 1016.95 1017.53 1018.09 1018.61 1019.11 1019.58 1020.03 1020.45 1020.82 1021.14 1021.41 1021.62 1021.79 1021.93 1022.06 1022.19 1022.34 1022.51 1022.71
1008.19 1008.01 1007.92 1007.93 1008.01 1008.18 1008.42 1008.73 1009.11 1009.58 1010.13 1010.75 1011.45 1012.21 1013.02 1013.84 1014.66 1015.45 1016.22 1016.94 1017.62 1018.26 1018.86 1019.43 1019.96 1020.45 1020.90 1021.29 1021.61 1021.88 1022.08 1022.24 1022.36 1022.46 1022.57 1022.70 1022.86 1023.04
1008.16 1007.95 1007.83 1007.78 1007.81 1007.91 1008.08 1008.33 1008.66 1009.09 1009.61 1010.24 1010.95 1011.73 1012.57 1013.45 1014.33 1015.19 1016.03 1016.83 1017.58 1018.29 1018.96 1019.59 1020.18 1020.73 1021.21 1021.64 1021.99 1022.26 1022.47 1022.63 1022.74 1022.83 1022.92 1023.03 1023.17 1023.33
1008.22 1008.00 1007.85 1007.77 1007.76 1007.81 1007.94 1008.14 1008.43 1008.83 1009.33 1009.93 1010.63 1011.42 1012.27 1013.15 1014.05 1014.94 1015.81 1016.64 1017.44 1018.19 1018.91 1019.59 1020.23 1020.82 1021.36 1021.82 1022.21 1022.52 1022.75 1022.92 1023.03 1023.13 1023.21 1023.31 1023.43 1023.57
1008.38 1008.15 1008.00 1007.90 1007.86 1007.89 1008.00 1008.17 1008.44 1008.81 1009.29 1009.88 1010.56 1011.33 1012.16 1013.02 1013.90 1014.78 1015.63 1016.46 1017.26 1018.02 1018.76 1019.46 1020.13 1020.76 1021.33 1021.84 1022.27 1022.62 1022.89 1023.08 1023.22 1023.33 1023.42 1023.51 1023.61 1023.74
1008.64 1008.41 1008.26 1008.16 1008.13 1008.15 1008.25 1008.43 1008.69 1009.05 1009.52 1010.09 1010.75 1011.48 1012.27 1013.10 1013.93 1014.76 1015.57 1016.35 1017.11 1017.85 1018.56 1019.26 1019.93 1020.57 1021.17 1021.71 1022.18 1022.58 1022.89 1023.13 1023.30 1023.43 1023.53 1023.63 1023.73 1023.85
1008.98 1008.77 1008.63 1008.54 1008.52 1008.56 1008.68 1008.86 1009.14 1009.51 1009.97 1010.52 1011.16 1011.86 1012.60 1013.37 1014.14 1014.90 1015.64 1016.35 1017.05 1017.72 1018.39 1019.05 1019.70 1020.33 1020.94 1021.50 1022.00 1022.43 1022.78 1023.05 1023.27 1023.43 1023.55 1023.66 1023.77 1023.88
1009.39 1009.20 1009.08 1009.02 1009.02 1009.09 1009.22 1009.43 1009.73 1010.10 1010.56 1011.11 1011.72 1012.39 1013.08 1013.79 1014.49 1015.17 1015.83 1016.46 1017.08 1017.68 1018.28 1018.89 1019.49 1020.10 1020.69 1021.24 1021.75 1022.20 1022.58 1022.89 1023.14 1023.33 1023.48 1023.60 1023.72 1023.83
1009.85 1009.69 1009.59 1009.56 1009.59 1009.68 1009.84 1010.07 1010.37 1010.76 1011.22 1011.75 1012.34 1012.97 1013.62 1014.27 1014.91 1015.52 1016.10 1016.66 1017.20 1017.73 1018.26 1018.80 1019.35 1019.90 1020.45 1020.99 1021.49 1021.94 1022.33 1022.66 1022.92 1023.14 1023.31 1023.45 1023.57 1023.69
1010.31 1010.19 1010.13 1010.12 1010.18 1010.29 1010.46 1010.70 1011.01 1011.39 1011.85 1012.36 1012.92 1013.52 1014.13 1014.73 1015.32 1015.88 1016.40 1016.90 1017.37 1017.84 1018.30 1018.78 1019.27 1019.77 1020.27 1020.76 1021.23 1021.66 1022.05 1022.37 1022.65 1022.87 1023.05 1023.20 1023.33 1023.45
1010.77 1010.68 1010.65 1010.67 1010.74 1010.86 1011.04 1011.28 1011.58 1011.95 1012.38 1012.87 1013.40 1013.97 1014.54 1015.11 1015.66 1016.18 1016.67 1017.13 1017.56 1017.98 1018.39 1018.81 1019.25 1019.69 1020.14 1020.58 1021.00 1021.40 1021.75 1022.06 1022.33 1022.54 1022.72 1022.87 1023.00 1023.11
1011.17 1011.12 1011.12 1011.16 1011.24 1011.37 1011.54 1011.76 1012.04 1012.39 1012.79 1013.25 1013.75 1014.28 1014.83 1015.37 1015.90 1016.40 1016.87 1017.31 1017.72 1018.11 1018.50 1018.88 1019.27 1019.66 1020.05 1020.44 1020.81 1021.15 1021.46 1021.74 1021.98 1022.18 1022.34 1022.48 1022.59 1022.69
1011.49 1011.48 1011.50 1011.56 1011.64 1011.76 1011.93 1012.13 1012.39 1012.71 1013.08 1013.50 1013.97 1014.48 1015.00 1015.52 1016.03 1016.53 1016.99 1017.43 1017.84 1018.22 1018.59 1018.95 1019.30 1019.65 1019.99 1020.32 1020.63 1020.93 1021.19 1021.42 1021.62 1021.79 1021.93 1022.04 1022.13 1022.21
1011.71 1011.72 1011.77 1011.83 1011.92 1012.05 1012.20 1012.39 1012.63 1012.93 1013.27 1013.67 1014.11 1014.58 1015.08 1015.59 1016.09 1016.58 1017.05 1017.49 1017.90 1018.29 1018.65 1018.99 1019.32 1019.64 1019.94 1020.22 1020.48 1020.72 1020.93 1021.12 1021.27 1021.40 1021.51 1021.59 1021.65 1021.70
1011.79 1011.83 1011.89 1011.97 1012.06 1012.19 1012.34 1012.54 1012.77 1013.05 1013.38 1013.76 1014.18 1014.63 1015.11 1015.60 1016.09 1016.57 1017.04 1017.48 1017.90 1018.29 1018.65 1018.99 1019.30 1019.59 1019.86 1020.10 1020.32 1020.52 1020.69 1020.83 1020.94 1021.04 1021.11 1021.16 1021.19 1021.20
1011.71 1011.77 1011.84 1011.94 1012.05 1012.19 1012.36 1012.56 1012.81 1013.09 1013.42 1013.79 1014.20 1014.63 1015.09 1015.57 1016.04 1016.51 1016.97 1017.41 1017.83 1018.22 1018.58 1018.91 1019.21 1019.49 1019.73 1019.95 1020.14 1020.31 1020.44 1020.55 1020.64 1020.70 1020.73 1020.75 1020.75 1020.73
1011.45 1011.53 1011.63 1011.74 1011.87 1012.04 1012.23 1012.46 1012.73 1013.04 1013.38 1013.76 1014.16 1014.59 1015.03 1015.49 1015.94 1016.40 1016.84 1017.27 1017.67 1018.05 1018.41 1018.74 1019.04 1019.31 1019.54 1019.75 1019.92 1020.07 1020.18 1020.27 1020.33 1020.37 1020.39 1020.38 1020.35 1020.31
Thickness
5690 5693 5696 5699 5701 5703 5704 5705 5702 5698 5701 5708 5712 5717 5719 5720 5721 5721 5720 5719 5717 5716 5714 5712 5710 5708 5706 5703 5701 5699 5696 5694 5691 5689 5686 5684 5682 5679
5683 5687 5690 5694 5696 5698 5700 5701 5702 5701 5699 5703 5707 5711 5713 5715 5715 5716 5715 5715 5713 5711 5709 5707 5705 5703 5700 5698 5695 5693 5690 5688 5685 5683 5681 5678 5676 5673
5676 5681 5684 5688 5691 5693 5695 5696 5697 5698 5696 5698 5701 5704 5706 5708 5708 5708 5709 5708 5707 5705 5704 5702 5699 5697 5694 5691 5689 5686 5684 5681 5679 5677 5675 5672 5670 5667
5669 5673 5678 5681 5684 5687 5689 5691 5693 5695 5695 5693 5693 5696 5698 5700 5701 5701 5701 5700 5700 5698 5697 5695 5693 5690 5687 5685 5682 5680 5677 5675 5673 5671 5668 5666 5664 5661
5662 5666 5671 5675 5678 5680 5683 5685 5687 5690 5692 5690 5689 5690 5691 5692 5692 5692 5692 5691 5691 5689 5688 5687 5684 5682 5680 5678 5675 5673 5671 5668 5666 5664 5661 5659 5657 5655
5656 5660 5666 5670 5673 5675 5677 5680 5681 5683 5685 5685 5684 5683 5684 5685 5685 5683 5681 5681 5681 5680 5679 5677 5676 5674 5672 5671 5668 5666 5664 5662 5659 5657 5654 5652 5650 5648
5649 5655 5661 5665 5669 5671 5673 5674 5676 5677 5678 5679 5678 5678 5678 5678 5678 5677 5674 5672 5670 5670 5669 5667 5666 5665 5663 5662 5661 5659 5657 5654 5652 5650 5648 5646 5644 5642
5642 5648 5654 5659 5663 5667 5669 5671 5672 5673 5674 5674 5674 5674 5674 5674 5674 5671 5669 5666 5662 5661 5661 5657 5657 5656 5655 5654 5653 5652 5650 5648 5646 5644 5642 5640 5638 5636
5637 5641 5647 5653 5656 5660 5663 5665 5667 5670 5672 5672 5670 5671 5671 5671 5670 5666 5664 5662 5659 5656 5653 5648 5647 5647 5646 5645 5645 5644 5643 5641 5639 5638 5636 5634 5633 5631
5632 5636 5641 5646 5650 5654 5656 5658 5660 5662 5665 5667 5667 5668 5668 5667 5666 5663 5659 5654 5650 5647 5647 5642 5639 5638 5637 5637 5637 5636 5636 5634 5633 5632 5630 5629 5627 5625
5627 5631 5635 5640 5645 5648 5650 5652 5653 5654 5656 5659 5660 5661 5661 5660 5658 5655 5651 5648 5643 5640 5640 5638 5633 5630 5629 5628 5628 5629 5629 5629 5627 5626 5625 5623 5622 5620
5622 5626 5630 5634 5638 5641 5643 5645 5645 5647 5649 5650 5651 5652 5652 5652 5652 5652 5650 5646 5641 5637 5634 5633 5629 5627 5623 5622 5622 5623 5623 5622 5621 5620 5620 5619 5618 5616
5617 5621 5624 5628 5631 5634 5636 5638 5639 5641 5642 5643 5644 5644 5645 5644 5644 5644 5645 5645 5641 5637 5635 5633 5627 5625 5623 5619 5617 5617 5617 5617 5616 5616 5615 5615 5614 5613
5613 5616 5619 5623 5626 5627 5629 5631 5632 5634 5635 5636 5637 5637 5638 5638 5638 5638 5637 5637 5638 5638 5635 5633 5628 5625 5622 5618 5616 5614 5613 5613 5612 5612 5611 5611 5610 5609
5611 5613 5616 5618 5620 5621 5623 5625 5627 5628 5630 5630 5630 5630 5631 5632 5631 5630 5629 5629 5629 5629 5628 5629 5628 5625 5623 5620 5616 5613 5611 5610 5610 5610 5609 5608 5607 5606
5609 5611 5612 5614 5615 5617 5618 5620 5622 5624 5625 5624 5623 5623 5625 5625 5625 5625 5623 5623 5622 5619 5620 5623 5624 5623 5620 5618 5616 5613 5611 5610 5609 5608 5607 5606 5605 5604
5609 5610 5611 5611 5612 5612 5613 5615 5617 5619 5618 5618 5618 5618 5619 5619 5618 5619 5620 5620 5619 5616 5614 5615 5616 5617 5617 5616 5613 5612 5610 5608 5608 5607 5605 5604 5605 5604
5610 5609 5609 5609 5609 5610 5611 5611 5613 5614 5615 5615 5615 5616 5616 5615 5614 5614 5615 5616 5614 5612 5611 5611 5611 5612 5611 5609 5611 5610 5608 5607 5606 5604 5604 5603 5604 5604
5610 5609 5608 5608 5609 5609 5609 5610 5610 5611 5612 5613 5613 5613 5613 5613 5613 5612 5612 5611 5610 5609 5608 5608 5609 5610 5610 5610 5608 5608 5608 5606 5604 5602 5602 5602 5603 5604
5612 5611 5610 5610 5609 5610 5609 5610 5610 5610 5610 5611 5611 5612 5612 5612 5611 5610 5610 5609 5608 5607 5605 5605 5607 5609 5609 5609 5608 5606 5606 5605 5604 5603 5601 5600 5600 5600
5614 5612 5612 5612 5611 5611 5611 5611 5611 5611 5611 5611 5611 5611 5611 5611 5610 5609 5608 5608 5607 5606 5605 5605 5606 5606 5606 5605 5605 5604 5604 5604 5604 5602 5600 5598 5598 5599
5617 5616 5615 5614 5614 5613 5612 5612 5612 5612 5611 5611 5611 5611 5611 5611 5611 5610 5608 5607 5607 5607 5606 5603 5602 5602 5603 5604 5604 5603 5602 5601 5601 5600 5600 5600 5599 5599
5622 5620 5618 5617 5616 5616 5614 5614 5614 5613 5613 5613 5612 5612 5611 5611 5611 5610 5609 5608 5607 5605 5603 5600 5599 5599 5600 5600 5600 5600 5599 5599 5598 5598 5599 5600 5599 5599